{"data":{"norad_id":62784,"epoch":"2026-09-21T21:58:56.594784Z","epoch_age_seconds":48949,"freshness":"FRESH","line1":"1 62784U 25015AC  26264.91593281  .00015099  00000+0  49713-3 0  9998","line2":"2 62784  53.1597 129.6364 0002151 141.8574 218.2580 15.31713764 94545","mean_motion":15.31713764,"eccentricity":0.0002151,"inclination_deg":53.1597,"raan_deg":129.6364,"arg_perigee_deg":141.8574,"mean_anomaly_deg":218.258,"bstar":0.00049713,"rev_number":9454,"period_min":94.012343157347,"perigee_km":469.22578114888,"apogee_km":472.17215038135,"semimajor_km":6848.8359657651,"source":"CELESTRAK","updated_at":"2026-09-22T09:00:49.666085Z"}}